Hourly Weather Novaya Odessa

Today, 24 September, Thursday

Time Temperature Precipitation Wind Pressure Humidity
00:00 +16°C° 0 mm 1 mps 759 mmHg 60%
01:00 +16°C° 0 mm 1 mps 760 mmHg 64%
02:00 +15°C° 0 mm 1 mps 760 mmHg 66%
03:00 +15°C° 0 mm 1 mps 760 mmHg 68%
04:00 +14°C° 0 mm 2 mps 760 mmHg 70%
05:00 +14°C° 0 mm 2 mps 760 mmHg 72%
06:00 +16°C° 0 mm 2 mps 760 mmHg 67%
07:00 +17°C° 0 mm 2 mps 759 mmHg 62%
08:00 +19°C° 0 mm 3 mps 759 mmHg 57%
09:00 +21°C° 0 mm 3 mps 759 mmHg 52%
10:00 +24°C° 0 mm 3 mps 759 mmHg 46%
11:00 +26°C° 0 mm 3 mps 759 mmHg 41%
12:00 +27°C° 0 mm 3 mps 759 mmHg 37%
13:00 +28°C° 0 mm 3 mps 759 mmHg 33%
14:00 +29°C° 0 mm 3 mps 758 mmHg 29%
15:00 +28°C° 0 mm 3 mps 758 mmHg 31%
16:00 +27°C° 0 mm 3 mps 758 mmHg 34%
17:00 +26°C° 0 mm 3 mps 758 mmHg 36%
18:00 +24°C° 0 mm 3 mps 758 mmHg 45%
19:00 +21°C° 0 mm 2 mps 758 mmHg 54%
20:00 +18°C° 0 mm 2 mps 759 mmHg 63%
21:00 +18°C° 0 mm 2 mps 759 mmHg 65%
22:00 +18°C° 0 mm 1 mps 759 mmHg 68%
23:00 +18°C° 0 mm 1 mps 759 mmHg 70%

Tomorrow, 25 September, Friday

Time Temperature Precipitation Wind Pressure Humidity
00:00 +16°C° 0 mm 1 mps 759 mmHg 72%
01:00 +16°C° 0 mm 1 mps 758 mmHg 74%
02:00 +15°C° 0 mm 0 mps 758 mmHg 76%
03:00 +15°C° 0 mm 0 mps 758 mmHg 76%
04:00 +15°C° 0 mm 0 mps 758 mmHg 76%
05:00 +15°C° 0 mm 0 mps 758 mmHg 76%
06:00 +18°C° 0 mm 1 mps 758 mmHg 69%
07:00 +20°C° 0 mm 1 mps 758 mmHg 62%
08:00 +20°C° 0 mm 2 mps 758 mmHg 55%
09:00 +24°C° 0 mm 2 mps 758 mmHg 49%
10:00 +26°C° 0 mm 3 mps 758 mmHg 43%
11:00 +28°C° 0 mm 3 mps 757 mmHg 37%
12:00 +29°C° 0 mm 3 mps 757 mmHg 35%
13:00 +30°C° 0 mm 3 mps 757 mmHg 33%
14:00 +31°C° 0 mm 3 mps 756 mmHg 31%
15:00 +30°C° 0 mm 3 mps 756 mmHg 33%
16:00 +29°C° 0 mm 3 mps 756 mmHg 35%
17:00 +28°C° 0 mm 3 mps 755 mmHg 37%
18:00 +26°C° 0 mm 3 mps 756 mmHg 44%
19:00 +24°C° 0 mm 2 mps 756 mmHg 51%
20:00 +21°C° 0 mm 2 mps 756 mmHg 58%
21:00 +20°C° 0 mm 2 mps 756 mmHg 61%
22:00 +19°C° 0 mm 2 mps 756 mmHg 64%
23:00 +19°C° 0 mm 2 mps 756 mmHg 67%

Day after tomorrow, 26 September, Saturday

Time Temperature Precipitation Wind Pressure Humidity
00:00 +18°C° 0 mm 2 mps 755 mmHg 70%
01:00 +18°C° 0 mm 2 mps 755 mmHg 73%
02:00 +18°C° 0 mm 2 mps 755 mmHg 76%
03:00 +17°C° 0 mm 3 mps 755 mmHg 77%
04:00 +17°C° 0 mm 3 mps 755 mmHg 79%
05:00 +16°C° 0 mm 3 mps 755 mmHg 80%
06:00 +18°C° 0 mm 3 mps 754 mmHg 74%
07:00 +19°C° 0 mm 4 mps 754 mmHg 68%
08:00 +21°C° 0 mm 4 mps 754 mmHg 61%
09:00 +23°C° 0 mm 4 mps 754 mmHg 54%
10:00 +27°C° 0 mm 5 mps 754 mmHg 48%
11:00 +29°C° 0 mm 5 mps 754 mmHg 41%
12:00 +30°C° 0 mm 5 mps 754 mmHg 38%
13:00 +30°C° 0 mm 6 mps 753 mmHg 36%
14:00 +32°C° 0 mm 6 mps 753 mmHg 33%
15:00 +30°C° 0 mm 5 mps 753 mmHg 35%
16:00 +29°C° 0 mm 5 mps 753 mmHg 37%
17:00 +29°C° 0 mm 4 mps 753 mmHg 39%
18:00 +27°C° 0 mm 4 mps 752 mmHg 46%
19:00 +25°C° 0 mm 4 mps 752 mmHg 53%
20:00 +22°C° 0 mm 4 mps 752 mmHg 59%
21:00 +21°C° 0 mm 5 mps 752 mmHg 60%
22:00 +21°C° 0 mm 5 mps 752 mmHg 61%
23:00 +21°C° 0 mm 6 mps 752 mmHg 61%

27 September, Sunday

Time Temperature Precipitation Wind Pressure Humidity
00:00 +21°C° 0 mm 6 mps 752 mmHg 63%
01:00 +20°C° 0 mm 6 mps 751 mmHg 64%
02:00 +20°C° 0 mm 6 mps 751 mmHg 66%
03:00 +20°C° 0.2 mm 7 mps 751 mmHg 67%
04:00 +21°C° 0.2 mm 8 mps 751 mmHg 68%
05:00 +21°C° 0.2 mm 8 mps 751 mmHg 68%
06:00 +21°C° 0.5 mm 9 mps 751 mmHg 68%
07:00 +21°C° 0.5 mm 9 mps 751 mmHg 67%
08:00 +22°C° 0.5 mm 10 mps 751 mmHg 67%
09:00 +23°C° 0.5 mm 10 mps 751 mmHg 64%
10:00 +24°C° 0.5 mm 9 mps 752 mmHg 61%
11:00 +26°C° 0.5 mm 9 mps 752 mmHg 59%
12:00 +26°C° 0.1 mm 9 mps 752 mmHg 51%
13:00 +27°C° 0.1 mm 9 mps 753 mmHg 44%
14:00 +27°C° 0.1 mm 8 mps 753 mmHg 37%
15:00 +26°C° 0 mm 8 mps 753 mmHg 39%
16:00 +24°C° 0 mm 7 mps 754 mmHg 41%
17:00 +23°C° 0 mm 6 mps 754 mmHg 43%
18:00 +22°C° 0 mm 6 mps 755 mmHg 49%
19:00 +21°C° 0 mm 5 mps 756 mmHg 56%
20:00 +19°C° 0 mm 4 mps 756 mmHg 62%
21:00 +19°C° 0 mm 4 mps 757 mmHg 57%
22:00 +18°C° 0 mm 3 mps 758 mmHg 52%
23:00 +17°C° 0 mm 3 mps 758 mmHg 46%

28 September, Monday

Time Temperature Precipitation Wind Pressure Humidity
00:00 +17°C° 0 mm 3 mps 758 mmHg 47%
01:00 +16°C° 0 mm 2 mps 759 mmHg 48%
02:00 +15°C° 0 mm 2 mps 759 mmHg 49%
03:00 +15°C° 0 mm 1 mps 760 mmHg 51%
04:00 +15°C° 0 mm 1 mps 760 mmHg 52%
05:00 +13°C° 0 mm 0 mps 760 mmHg 54%
06:00 +16°C° 0 mm 1 mps 760 mmHg 50%
07:00 +18°C° 0 mm 1 mps 761 mmHg 46%
08:00 +19°C° 0 mm 2 mps 761 mmHg 42%
09:00 +21°C° 0 mm 3 mps 761 mmHg 38%
10:00 +24°C° 0 mm 3 mps 761 mmHg 34%
11:00 +26°C° 0 mm 4 mps 761 mmHg 30%
12:00 +27°C° 0 mm 5 mps 761 mmHg 29%
13:00 +28°C° 0 mm 5 mps 761 mmHg 28%
14:00 +28°C° 0 mm 5 mps 761 mmHg 27%
15:00 +27°C° 0 mm 4 mps 761 mmHg 29%
16:00 +26°C° 0 mm 4 mps 761 mmHg 30%
17:00 +25°C° 0 mm 3 mps 760 mmHg 32%
18:00 +24°C° 0 mm 3 mps 761 mmHg 34%
19:00 +22°C° 0 mm 3 mps 761 mmHg 36%
20:00 +20°C° 0 mm 2 mps 761 mmHg 38%
21:00 +20°C° 0 mm 3 mps 760 mmHg 40%
22:00 +19°C° 0 mm 3 mps 760 mmHg 42%
23:00 +18°C° 0 mm 3 mps 760 mmHg 44%

29 September, Tuesday

Time Temperature Precipitation Wind Pressure Humidity
00:00 +18°C° 0 mm 3 mps 760 mmHg 51%
01:00 +17°C° 0 mm 3 mps 759 mmHg 57%
02:00 +17°C° 0 mm 3 mps 759 mmHg 64%
03:00 +16°C° 0 mm 3 mps 759 mmHg 72%
04:00 +16°C° 0 mm 3 mps 759 mmHg 81%
05:00 +16°C° 0 mm 3 mps 758 mmHg 90%
06:00 +17°C° 0 mm 4 mps 758 mmHg 84%
07:00 +17°C° 0 mm 5 mps 758 mmHg 78%
08:00 +19°C° 0 mm 6 mps 757 mmHg 73%
09:00 +21°C° 0 mm 6 mps 757 mmHg 66%
10:00 +23°C° 0 mm 6 mps 756 mmHg 59%
11:00 +26°C° 0 mm 7 mps 756 mmHg 52%
12:00 +26°C° 0 mm 7 mps 756 mmHg 50%
13:00 +27°C° 0 mm 7 mps 755 mmHg 48%
14:00 +27°C° 0 mm 6 mps 755 mmHg 46%
15:00 +26°C° 0.2 mm 5 mps 754 mmHg 53%
16:00 +23°C° 0.2 mm 4 mps 754 mmHg 61%
17:00 +21°C° 0.2 mm 3 mps 754 mmHg 69%
18:00 +21°C° 0.1 mm 4 mps 753 mmHg 67%
19:00 +21°C° 0.1 mm 5 mps 753 mmHg 64%
20:00 +21°C° 0.1 mm 5 mps 753 mmHg 62%
21:00 +21°C° 0.5 mm 5 mps 753 mmHg 64%
22:00 +20°C° 0.5 mm 5 mps 753 mmHg 66%
23:00 +20°C° 0.5 mm 5 mps 753 mmHg 68%
Show more